Windsor Locks, CT

8:07 PM EST on November 22, 2017 (GMT -0500)
Bradley International

Weather History for KBDL - March, 2014

Change the Weather History Date:

Wednesday, March 5, 2014

  Actual Average Record
Temperature  
Mean Temperature 24 °F 34 °F  
Max Temperature 29 °F 44 °F 63 °F (1974)
Min Temperature 18 °F 25 °F 4 °F (1948)
Degree Days  
Heating Degree Days 41 31  
Month to date heating degree days 219 157  
Since 1 July heating degree days 4898 4595  
Cooling Degree Days 0 0  
Month to date cooling degree days 0 0  
Year to date cooling degree days 0 0  
Moisture  
Dew Point 10 °F    
Average Humidity 58    
Maximum Humidity 65    
Minimum Humidity 50    
Precipitation  
Precipitation 0.00 in 0.11 in 0.90 in (1993)
Month to date precipitation T 0.55  
Year to date precipitation 7.37 6.67  
Snow  
Snow 0.00 in 0.30 in 7.10 in (1993)
Month to date snowfall T 1.3  
Since 1 July snowfall 50.1 34.0  
Snow Depth 10.00 in    
Sea Level Pressure  
Sea Level Pressure 30.31 in    
Wind  
Wind Speed 8 mph (North)    
Max Wind Speed 20 mph    
Max Gust Speed 25 mph    
Visibility 10 miles    
Events      
T = Trace of Precipitation, MM = Missing Value Source: NWS Daily Summary

Daily Weather History Graph

Daily Weather History Graph

Search for Another Location

Airport or City:

Trip Planner

Search our weather history database for the weather conditions in past years. The results will help you decide how hot, cold, wet, or windy it might be!

Date:

Astronomy

Mar. 05, 2014 Rise Set
Actual Time 6:19 AM EST 5:45 PM EST
Civil Twilight 5:51 AM EST 6:13 PM EST
Nautical Twilight 5:19 AM EST 6:45 PM EST
Astronomical Twilight 4:46 AM EST 7:18 PM EST
Moon 8:38 AM EST (3/5) 10:56 PM EST (3/5)
Length of Visible Light 12h 22m
Length of Day
11h 26m
Waxing Crescent, 23% of the Moon is Illuminated
Mar 5
Waxing Crescent
Mar 8
First Quarter
Mar 16
Full
Mar 23
Last Quarter
Mar 30
New

Hourly Weather History & Observations

Time (EST) Temp. Windchill Dew Point Humidity Pressure Visibility Wind Dir Wind Speed Gust Speed Precip Events Conditions
12:51 AM 24.1 °F - 9.0 °F 53% 30.25 in 10.0 mi Calm Calm - N/A   Overcast
1:51 AM 23.0 °F 18.4 °F 8.1 °F 53% 30.25 in 10.0 mi North 3.5 mph - N/A   Overcast
2:51 AM 23.0 °F - 9.0 °F 55% 30.24 in 10.0 mi Calm Calm - N/A   Mostly Cloudy
3:51 AM 21.9 °F 15.7 °F 9.0 °F 58% 30.23 in 10.0 mi NW 4.6 mph - N/A   Overcast
4:51 AM 23.0 °F 18.4 °F 6.1 °F 48% 30.24 in 10.0 mi North 3.5 mph - N/A   Overcast
5:51 AM 21.9 °F 15.7 °F 7.0 °F 53% 30.25 in 10.0 mi North 4.6 mph - N/A   Overcast
6:51 AM 21.9 °F 15.7 °F 8.1 °F 55% 30.25 in 10.0 mi North 4.6 mph - N/A   Overcast
7:51 AM 23.0 °F 15.8 °F 8.1 °F 53% 30.29 in 10.0 mi North 5.8 mph - N/A   Overcast
8:51 AM 24.1 °F 16.0 °F 10.0 °F 55% 30.29 in 10.0 mi North 6.9 mph - N/A   Overcast
9:51 AM 26.1 °F 18.4 °F 10.9 °F 53% 30.28 in 10.0 mi NNE 6.9 mph - N/A   Overcast
10:51 AM 27.0 °F 18.7 °F 10.0 °F 49% 30.29 in 10.0 mi North 8.1 mph - N/A   Overcast
11:51 AM 27.0 °F 18.0 °F 10.9 °F 51% 30.28 in 10.0 mi North 9.2 mph - N/A   Overcast
12:51 PM 27.0 °F 18.7 °F 12.0 °F 53% 30.26 in 10.0 mi North 8.1 mph - N/A   Overcast
1:51 PM 28.0 °F 20.0 °F 12.9 °F 53% 30.26 in 10.0 mi NNE 8.1 mph - N/A   Overcast
2:51 PM 28.9 °F 21.1 °F 12.9 °F 51% 30.27 in 10.0 mi NNE 8.1 mph - N/A   Overcast
3:51 PM 28.9 °F 21.9 °F 12.9 °F 51% 30.29 in 10.0 mi NNE 6.9 mph - N/A   Overcast
4:51 PM 28.9 °F 21.9 °F 12.0 °F 49% 30.30 in 10.0 mi NNE 6.9 mph - N/A   Overcast
5:51 PM 28.9 °F 20.4 °F 14.0 °F 54% 30.33 in 10.0 mi NNE 9.2 mph - N/A   Overcast
6:51 PM 27.0 °F 17.3 °F 15.1 °F 61% 30.36 in 10.0 mi North 10.4 mph - N/A   Mostly Cloudy
7:51 PM 25.0 °F 13.1 °F 14.0 °F 63% 30.40 in 10.0 mi North 13.8 mph - N/A   Scattered Clouds
8:51 PM 23.0 °F 11.1 °F 12.0 °F 63% 30.43 in 10.0 mi North 12.7 mph - N/A   Partly Cloudy
9:51 PM 21.0 °F 8.1 °F 10.0 °F 63% 30.46 in 10.0 mi North 13.8 mph - N/A   Clear
10:51 PM 19.9 °F 6.7 °F 7.0 °F 57% 30.48 in 10.0 mi North 13.8 mph - N/A   Clear
11:51 PM 18.0 °F 5.4 °F 3.0 °F 52% 30.50 in 10.0 mi North 11.5 mph - N/A   Clear